• In Spain
  • List of Countries
  • For 7 days
  • Water Temperature
  • Satellite Maps
  • Weather Map
  • Weather Widgets
  • user-avatar
    Login

    Hourly Weather Tatarskoe Hodyashevo

    Today, 17 October, Wednesday

    Time Temperature Precipitation Wind Pressure Humidity
    00:00 +7°C° 0 mm 4 mps 753 mmHg 90%
    01:00 +7°C° 0 mm 4 mps 752 mmHg 90%
    02:00 +6°C° 0 mm 4 mps 752 mmHg 90%
    03:00 +6°C° 0 mm 4 mps 752 mmHg 91%
    04:00 +6°C° 0 mm 5 mps 751 mmHg 91%
    05:00 +6°C° 0 mm 5 mps 751 mmHg 92%
    06:00 +5°C° 0 mm 5 mps 751 mmHg 92%
    07:00 +6°C° 0 mm 5 mps 751 mmHg 90%
    08:00 +7°C° 0 mm 6 mps 751 mmHg 87%
    09:00 +8°C° 0 mm 6 mps 751 mmHg 85%
    10:00 +9°C° 0 mm 6 mps 752 mmHg 83%
    11:00 +9°C° 0 mm 6 mps 752 mmHg 82%
    12:00 +9°C° 0 mm 6 mps 753 mmHg 80%
    13:00 +9°C° 0 mm 6 mps 753 mmHg 76%
    14:00 +9°C° 0 mm 6 mps 754 mmHg 73%
    15:00 +9°C° 0 mm 5 mps 755 mmHg 69%
    16:00 +7°C° 0 mm 5 mps 755 mmHg 72%
    17:00 +6°C° 0 mm 4 mps 756 mmHg 75%
    18:00 +5°C° 0 mm 3 mps 757 mmHg 79%
    19:00 +5°C° 0 mm 3 mps 757 mmHg 81%
    20:00 +4°C° 0 mm 3 mps 758 mmHg 83%
    21:00 +3°C° 0 mm 3 mps 758 mmHg 85%
    22:00 +3°C° 0 mm 3 mps 758 mmHg 86%
    23:00 +4°C° 0 mm 2 mps 758 mmHg 87%

    Tomorrow, 18 October, Thursday

    Time Temperature Precipitation Wind Pressure Humidity
    00:00 +3°C° 0 mm 2 mps 759 mmHg 88%
    01:00 +3°C° 0 mm 2 mps 759 mmHg 89%
    02:00 +3°C° 0 mm 2 mps 759 mmHg 89%
    03:00 +3°C° 0 mm 2 mps 759 mmHg 89%
    04:00 +3°C° 0 mm 2 mps 759 mmHg 89%
    05:00 +2°C° 0 mm 2 mps 759 mmHg 88%
    06:00 +2°C° 0 mm 2 mps 759 mmHg 88%
    07:00 +3°C° 0 mm 2 mps 759 mmHg 84%
    08:00 +4°C° 0 mm 2 mps 759 mmHg 80%
    09:00 +4°C° 0 mm 3 mps 759 mmHg 76%
    10:00 +5°C° 0 mm 3 mps 758 mmHg 72%
    11:00 +8°C° 0 mm 3 mps 758 mmHg 68%
    12:00 +9°C° 0 mm 3 mps 758 mmHg 64%
    13:00 +9°C° 0 mm 3 mps 757 mmHg 66%
    14:00 +8°C° 0 mm 4 mps 757 mmHg 69%
    15:00 +8°C° 0 mm 4 mps 756 mmHg 71%
    16:00 +7°C° 0 mm 4 mps 756 mmHg 75%
    17:00 +7°C° 0 mm 4 mps 755 mmHg 79%
    18:00 +6°C° 0 mm 4 mps 755 mmHg 83%
    19:00 +6°C° 0 mm 4 mps 755 mmHg 85%
    20:00 +6°C° 0 mm 4 mps 754 mmHg 86%
    21:00 +6°C° 0 mm 4 mps 754 mmHg 88%
    22:00 +6°C° 0 mm 4 mps 754 mmHg 90%
    23:00 +6°C° 0 mm 4 mps 753 mmHg 92%

    Day after tomorrow, 19 October, Friday

    Time Temperature Precipitation Wind Pressure Humidity
    00:00 +6°C° 0 mm 4 mps 753 mmHg 95%
    01:00 +5°C° 0 mm 4 mps 753 mmHg 95%
    02:00 +5°C° 0 mm 4 mps 753 mmHg 96%
    03:00 +5°C° 0 mm 4 mps 752 mmHg 96%
    04:00 +5°C° 0 mm 3 mps 752 mmHg 96%
    05:00 +5°C° 0 mm 3 mps 752 mmHg 96%
    06:00 +5°C° 0 mm 3 mps 752 mmHg 96%
    07:00 +5°C° 0 mm 4 mps 752 mmHg 94%
    08:00 +6°C° 0 mm 4 mps 751 mmHg 91%
    09:00 +7°C° 0 mm 4 mps 751 mmHg 88%
    10:00 +9°C° 0 mm 5 mps 751 mmHg 83%
    11:00 +10°C° 0 mm 5 mps 751 mmHg 78%
    12:00 +12°C° 0 mm 5 mps 751 mmHg 73%
    13:00 +12°C° 0 mm 5 mps 750 mmHg 72%
    14:00 +13°C° 0 mm 5 mps 750 mmHg 72%
    15:00 +13°C° 0 mm 5 mps 750 mmHg 71%
    16:00 +12°C° 0 mm 5 mps 750 mmHg 76%
    17:00 +12°C° 0 mm 4 mps 750 mmHg 81%
    18:00 +11°C° 0 mm 4 mps 749 mmHg 86%
    19:00 +11°C° 0 mm 4 mps 749 mmHg 88%
    20:00 +10°C° 0 mm 4 mps 749 mmHg 89%
    21:00 +10°C° 0 mm 4 mps 749 mmHg 91%
    22:00 +10°C° 0 mm 4 mps 749 mmHg 92%
    23:00 +10°C° 0 mm 3 mps 749 mmHg 93%

    20 October, Saturday

    Time Temperature Precipitation Wind Pressure Humidity
    00:00 +10°C° 0 mm 3 mps 749 mmHg 94%
    01:00 +10°C° 0 mm 3 mps 749 mmHg 94%
    02:00 +10°C° 0 mm 3 mps 749 mmHg 95%
    03:00 +10°C° 0 mm 3 mps 749 mmHg 95%
    04:00 +9°C° 0.6 mm 3 mps 748 mmHg 95%
    05:00 +9°C° 0.6 mm 3 mps 748 mmHg 95%
    06:00 +8°C° 0.6 mm 4 mps 748 mmHg 94%
    07:00 +8°C° 0.5 mm 4 mps 748 mmHg 90%
    08:00 +8°C° 0.5 mm 4 mps 748 mmHg 86%
    09:00 +8°C° 0.5 mm 4 mps 749 mmHg 81%
    10:00 +8°C° 0 mm 4 mps 749 mmHg 76%
    11:00 +9°C° 0 mm 5 mps 749 mmHg 71%
    12:00 +9°C° 0 mm 5 mps 749 mmHg 66%
    13:00 +9°C° 0 mm 5 mps 750 mmHg 66%
    14:00 +8°C° 0 mm 5 mps 750 mmHg 67%
    15:00 +8°C° 0 mm 4 mps 750 mmHg 67%
    16:00 +7°C° 0 mm 4 mps 750 mmHg 71%
    17:00 +7°C° 0 mm 4 mps 751 mmHg 75%
    18:00 +7°C° 0 mm 3 mps 751 mmHg 79%
    19:00 +5°C° 0 mm 3 mps 751 mmHg 82%
    20:00 +5°C° 0 mm 3 mps 751 mmHg 85%
    21:00 +5°C° 0 mm 4 mps 752 mmHg 88%
    22:00 +4°C° 0 mm 4 mps 752 mmHg 89%
    23:00 +4°C° 0 mm 4 mps 752 mmHg 90%

    21 October, Sunday

    Time Temperature Precipitation Wind Pressure Humidity
    00:00 +4°C° 0 mm 4 mps 752 mmHg 92%
    01:00 +3°C° 0 mm 4 mps 753 mmHg 93%
    02:00 +3°C° 0 mm 3 mps 753 mmHg 94%
    03:00 +3°C° 0 mm 3 mps 753 mmHg 95%
    04:00 +3°C° 0 mm 3 mps 753 mmHg 94%
    05:00 +3°C° 0 mm 3 mps 754 mmHg 94%
    06:00 +2°C° 0 mm 3 mps 754 mmHg 93%
    07:00 +3°C° 0 mm 3 mps 755 mmHg 89%
    08:00 +3°C° 0 mm 3 mps 755 mmHg 85%
    09:00 +4°C° 0 mm 4 mps 755 mmHg 81%
    10:00 +4°C° 0 mm 4 mps 756 mmHg 75%
    11:00 +5°C° 0 mm 4 mps 756 mmHg 70%
    12:00 +6°C° 0 mm 4 mps 756 mmHg 64%
    13:00 +6°C° 0 mm 4 mps 756 mmHg 65%
    14:00 +6°C° 0 mm 4 mps 757 mmHg 65%
    15:00 +6°C° 0 mm 4 mps 757 mmHg 66%
    16:00 +5°C° 0 mm 3 mps 757 mmHg 70%
    17:00 +4°C° 0 mm 3 mps 757 mmHg 74%
    18:00 +3°C° 0 mm 3 mps 758 mmHg 77%
    19:00 +4°C° 0 mm 2 mps 758 mmHg 80%
    20:00 +3°C° 0 mm 2 mps 758 mmHg 83%
    21:00 +2°C° 0 mm 2 mps 759 mmHg 86%
    22:00 +2°C° 0 mm 2 mps 759 mmHg 87%
    23:00 +2°C° 0 mm 1 mps 759 mmHg 89%

    22 October, Monday

    Time Temperature Precipitation Wind Pressure Humidity
    00:00 +2°C° 0 mm 1 mps 759 mmHg 90%
    01:00 +2°C° 0 mm 1 mps 759 mmHg 91%
    02:00 +2°C° 0 mm 1 mps 759 mmHg 91%
    03:00 +1°C° 0 mm 1 mps 760 mmHg 91%
    04:00 +1°C° 0 mm 1 mps 760 mmHg 91%
    05:00 +1°C° 0 mm 1 mps 760 mmHg 91%
    06:00 +1°C° 0 mm 1 mps 760 mmHg 91%
    07:00 +1°C° 0 mm 2 mps 760 mmHg 87%
    08:00 +2°C° 0 mm 2 mps 760 mmHg 83%
    09:00 +3°C° 0 mm 2 mps 760 mmHg 79%
    10:00 +3°C° 0 mm 3 mps 759 mmHg 76%
    11:00 +4°C° 0 mm 3 mps 759 mmHg 72%
    12:00 +5°C° 0 mm 4 mps 759 mmHg 69%
    13:00 +5°C° 0 mm 4 mps 758 mmHg 70%
    14:00 +5°C° 0 mm 4 mps 758 mmHg 71%
    15:00 +5°C° 0 mm 4 mps 757 mmHg 72%
    16:00 +4°C° 0 mm 4 mps 757 mmHg 75%
    17:00 +3°C° 0 mm 5 mps 756 mmHg 78%
    18:00 +2°C° 0 mm 5 mps 756 mmHg 81%
    19:00 +2°C° 0 mm 5 mps 756 mmHg 81%
    20:00 +2°C° 0 mm 5 mps 755 mmHg 81%
    21:00 +2°C° 0 mm 6 mps 755 mmHg 81%
    22:00 +2°C° 0 mm 6 mps 754 mmHg 81%
    23:00 +2°C° 0 mm 6 mps 754 mmHg 80%
    Show more